Location: Sungai Bunut
(2.6333°N, 113.7333°E)
Time: 07:10:49
(UTC+00:00)

Vanguard 3 - Pass Details

Date: 07 December 2023
Orbit: 508 x 3239 km, 33.3° (Epoch: 21 February)

Event Time Altitude Azimuth Distance (km) Brightness Sun altitude
Rises 07:40:02 0° 219° (SW) 6,329 12.6 34.3°
Reaches altitude 10° 07:44:20 10° 211° (SSW) 5,606 12.5 33.4°
Maximum altitude 08:01:15 42° 146° (SE) 4,091 11.0 29.7°
Drops below altitude 10° 08:18:25 10° 81° (E) 5,756 11.0 25.9°
Sets 08:22:48 0° 75° (ENE) 6,511 11.2 24.9°
